Regional Weather Roundup
Issued by NWS

Home | Current Version | Previous Version | Graphics & Text | Print | Product List | Glossary On
Versions: 1 2 3 4 5 6 7 8 9 10 11 12 13 14 15 16 17 18 19 20 21 22 23 24 25 26 27 28 29 30 31 32 33 34 35 36 37 38 39 40 41 42 43 44 45 46 47 48 49 50
000
ASUS43 KMPX 041810
RWRMN
WEATHER ROUNDUP FOR MINNESOTA
NATIONAL WEATHER SERVICE TWIN CITIES/CHANHASSEN MN
100 PM CDT WED MAY 04 2016


NOTE: "FAIR" INDICATES FEW OR NO CLOUDS BELOW 12,000 FEET WITH NO
SIGNIFICANT WEATHER AND/OR OBSTRUCTIONS TO VISIBILITY. N/A MEANS
CURRENT SKY AND/OR WEATHER CONDITIONS ARE NOT AVAILABLE.

MNZ060>063-068>070-041900-
   Twin Cities Metro

CITY           SKY/WX    TMP DP  RH WIND       PRES   REMARKS
TWIN CITIES    MOSUNNY   63  32  31 N15G24    29.97F
6HR MIN TEMP:  48; 6HR MAX TEMP:  63;

ST PAUL        MOSUNNY   61  33  35 NW13G25   29.97F
CRYSTAL        SUNNY     64  32  30 N15G25    29.96F
BLAINE         SUNNY     63  37  39 N21G28    29.97F
EDEN PRAIRIE   SUNNY     63  32  31 NW18G24   29.96F
6HR MIN TEMP:  48; 6HR MAX TEMP:  63;

SOUTH ST PAUL  SUNNY     62  31  30 N17       29.96F
LAKE ELMO      FAIR      61  36  39 NW17G24   29.97F
$$
MNZ001>005-007-008-013>017-022>024-027-028-041900-
   Northwest Minnesota

CITY           SKY/WX    TMP DP  RH WIND       PRES   REMARKS
BEMIDJI        SUNNY     57  29  34 N7        30.04F
HALLOCK        SUNNY     61  30  31 CALM      30.06F
ROSEAU         SUNNY     61  18  18 NE13      30.05F
WARROAD        SUNNY     54  30  40 E9        30.07F
THIEF RVR FALL SUNNY     61  27  27 N5        30.07F
CROOKSTON      SUNNY     61  34  36 N10G16    30.07F
FOSSTON        SUNNY     61  25  25 NW12      30.06F
DETROIT LAKES  SUNNY     61  30  31 N8G17     30.06S
MOORHEAD       SUNNY     63  34  34 N12G17    30.07F
PARK RAPIDS    SUNNY     61  21  21 N15G21    30.02F
MAHNOMEN       FAIR      61  27  27 N16G24    30.05F
$$
MNZ006-009>011-018-025>026-041900-
   North Central Minnesota

CITY           SKY/WX    TMP DP  RH WIND       PRES   REMARKS
BAUDETTE       SUNNY     55  22  27 N10       30.06S
FLAG ISLAND    SUNNY     52  25  35 CALM      30.05S
INTL FALLS     SUNNY     55  18  23 NE12      30.03F
6HR MIN TEMP:  37; 6HR MAX TEMP:  55;

WASKISH        SUNNY     57  23  26 NW9G17    30.04F
BIG FORK       SUNNY     59  18  20 NW9G17    30.02F
LONGVILLE      SUNNY     59  27  29 W10G17    30.02F
GRAND RAPIDS   SUNNY     55  21  26 N15G21    30.02F
CRANE LAKE     SUNNY     52  19  28 N7        30.03F
ORR            SUNNY     55  14  19 NW9       29.99S
COOK           SUNNY     55  21  26 N13G20    30.00S
WALKER         FAIR      57  24  28 N13G21    30.03S
$$
MNZ012-019>021-037-041900-
   Northeast Minnesota

CITY           SKY/WX    TMP DP  RH WIND       PRES   REMARKS
DULUTH         SUNNY     57  22  25 N17G25    29.96S
6HR MIN TEMP:  41; 6HR MAX TEMP:  58;

ELY            SUNNY     52  18  25 N7        29.99S
HIBBING        SUNNY     56  21  25 NW13G21   29.99S
EVELETH        SUNNY     57  18  21 N10G21    29.99F
DULUTH HARBOR  SUNNY     46  37  71 NE14      29.98R
TWO HARBORS    SUNNY     52  36  54 SE7       29.96R
SILVER BAY     SUNNY     50  32  50 E8        29.96R
GRAND MARAIS     N/A     46  32  58 SE10      29.96R
G MARAIS ARPRT SUNNY     50  27  40 NW14      29.96R
$$
MNZ029>031-032-039>041-046>048-054>057-064-041900-
   West Central Minnesota

CITY           SKY/WX    TMP DP  RH WIND       PRES   REMARKS
FERGUS FALLS   SUNNY     61  36  39 N12G21    30.03S
WHEATON        SUNNY     64  36  34 NW16G22   30.08S
MORRIS         SUNNY     64  34  32 NW21      30.03F
ALEXANDRIA     SUNNY     62  34  35 N12G21    30.03F
ELBOW LAKE     FAIR      60  37  41 NW12G18   30.04F
WADENA         SUNNY     61  28  29 N8G18     30.02F
GLENWOOD       SUNNY     63  30  29 N16G23    30.03F
APPLETON       SUNNY     64  28  25 NW14G25   30.03F
BENSON         SUNNY     64  28  25 N14G23    30.03F
ORTONVILLE     SUNNY     63  32  31 N14       30.05F
MADISON        SUNNY     64  36  34 NW15G24   30.04F
WILLMAR        FAIR      64  34  32 N17G28    30.02F
$$
MNZ033>034-036-042>043-049>051-058-059-041900-
   Central Minnesota

CITY           SKY/WX    TMP DP  RH WIND       PRES   REMARKS
ST CLOUD       SUNNY     62  29  28 N20G29    29.98F
6HR MIN TEMP:  41; 6HR MAX TEMP:  63;

SAUK CENTRE    FAIR      61  32  34 NW13G23   30.01F
PAYNESVILLE    SUNNY     63  29  27 NW16G24   30.00F
AITKIN         SUNNY     63   9  12 N14G20    29.98F
PINE RIVER     SUNNY     59  30  33 NW13G21   30.05F
BRAINERD       SUNNY     58  24  27 N15G24    30.02F
STAPLES        SUNNY     61  23  23 N8G21     30.02S
LONG PRAIRIE   FAIR      59  32  36 N15       30.02F
LITTLE FALLS   SUNNY     59  28  31 N8G18     30.00F
LITCHFIELD     SUNNY     64  34  32 N21G26    30.00F
BUFFALO        SUNNY     62  29  29 NW13G22   29.99F
MAPLE LAKE     SUNNY     63  34  34 NW14G23   30.00F
HUTCHINSON     SUNNY     63  35  34 NW16G26   30.01F
$$
MNZ037-044-045-052-053-041900-
   East Central Minnesota

CITY           SKY/WX    TMP DP  RH WIND       PRES   REMARKS
PRINCETON      SUNNY     63  32  31 NW18      29.98F
MORA           SUNNY     59  32  36 NW10G20   29.99F
CAMBRIDGE      SUNNY     63  39  42 NW14G23   29.96F
RUSH CITY      SUNNY     60  28  29 N20       29.96F
MOOSE LAKE     SUNNY     59  27  29 N15G26    29.96S
HINCKLEY       CLOUDY    61  30  31 N16G22    29.96F
CLOQUET        SUNNY     57  19  23 NW15G25   29.97S
MCGREGOR       SUNNY     59  27  29 N14G22    29.99F
$$
MNZ071>073-080-081-089-090-097-098-041900-
   Southwest Minnesota

CITY           SKY/WX    TMP DP  RH WIND       PRES   REMARKS
MONTEVIDEO     SUNNY     66  36  32 N20G28    30.05F
GRANITE FALLS  SUNNY     65  36  34 NW16G26   30.05F
CANBY          SUNNY     65  37  36 NW14G25   30.06F
MARSHALL       SUNNY     62  34  35 NW14G24   30.04
REDWOOD FALLS  SUNNY     65  31  28 NW17G23   30.01F
OLIVIA         SUNNY     63  32  31 N18G26    30.01F
PIPESTONE      MOSUNNY   64  27  24 N14G22    30.05F
WINDOM         SUNNY     63  34  34 NW16G26   30.03F
WORTHINGTON    SUNNY     59  37  44 NW15G23   30.05F
JACKSON        SUNNY     61  32  33 NW17G26   30.03F
TRACY          SUNNY     64  35  34 N12G22    30.04F
SLAYTON        SUNNY     60  34  37 NW17G23   30.05F
$$
MNZ065>067-074>077-082>085-091>093-041900-
   South Central Minnesota

CITY           SKY/WX    TMP DP  RH WIND       PRES   REMARKS
MANKATO        SUNNY     61  34  36 N17       29.99F
NEW ULM        SUNNY     63  32  31 N12G24    30.00F
ST JAMES       SUNNY     57  28  33 N15G26    30.02F
FAIRMONT       SUNNY     61  34  36 N22       30.01F
GLENCOE        MOSUNNY   63  37  37 NW18G26   29.99F
FARIBAULT      SUNNY     61  30  31 NW15G24   29.99S
OWATONNA       SUNNY     61  30  31 N18G28    29.97F
WASECA         SUNNY     63  32  31 N20G29    29.99F
ALBERT LEA     SUNNY     61  28  29 N15G24    29.97F
$$
MNZ078>079-086>088-094>096-041900-
   Southeast Minnesota

CITY           SKY/WX    TMP DP  RH WIND       PRES   REMARKS
ROCHESTER      MOSUNNY   59  35  40 NW23G32   29.96S
6HR MIN TEMP:  44; 6HR MAX TEMP:  59;

RED WING       SUNNY     61  28  29 N12G22    29.94F
STANTON        MOSUNNY   62  32  33 N13G25    29.95F
DODGE CENTER   MOSUNNY   59  30  33 N18G29    29.96S
WINONA         MOSUNNY   61  32  33 N12G26    29.92S
AUSTIN         SUNNY     57  34  41 N15G24    29.96S
PRESTON        MOSUNNY   56  34  42 NW18G25   29.93F
$$
ABBREVIATIONS USED IN REMARKS
   TC - TEMPERATURES IN CELSIUS
  WCI - WIND CHILL INDEX
   HX - HEAT INDEX
  VSB - VISIBILITY
$$



USA.gov is the U.S. government's official web portal to all federal, state and local government web resources and services.